Weather History for Wallops Island, VA

Change the Weather History Date:

Thursday, March 27, 2014

  Actual Average Record
Temperature  
Mean Temperature 33 °F 48 °F  
Max Temperature 42 °F 57 °F 82 °F (2007)
Min Temperature 23 °F 39 °F 23 °F (2014)
Degree Days  
Heating Degree Days 32    
Month to date heating degree days 617  
Since 1 July heating degree days 3610  
Cooling Degree Days 0    
Month to date cooling degree days 0  
Year to date cooling degree days 0  
Moisture  
Dew Point 19 °F    
Average Humidity 56    
Maximum Humidity 76    
Minimum Humidity 35    
Precipitation  
Precipitation T in 0.14 in 1.52 in (1999)
Month to date precipitation 2.13 3.48  
Year to date precipitation 7.70 9.28  
Sea Level Pressure  
Sea Level Pressure 30.41 in    
Wind  
Wind Speed 9 mph (WSW)    
Max Wind Speed 18 mph    
Max Gust Speed 22 mph    
Visibility 10 miles    
Events      
T = Trace of Precipitation, MM = Missing Value Source: NWS Daily Summary

Daily Weather History Graph

Daily Weather History Graph

Search for Another Location

Airport:

Trip Planner

Search our weather history database for the weather conditions in past years. The results will help you decide how hot, cold, wet, or windy it might be!

Date:

Astronomy

Mar. 27, 2014 Rise Set
Actual Time 6:54 AM EDT 7:20 PM EDT
Civil Twilight 6:28 AM EDT 7:46 PM EDT
Nautical Twilight 5:57 AM EDT 8:17 PM EDT
Astronomical Twilight 5:25 AM EDT 8:49 PM EDT
Moon 4:41 AM EDT (3/27) 4:07 PM EDT (3/27)
Length of Visible Light 13h 18m
Length of Day
12h 25m
Waning Crescent, 13% of the Moon is Illuminated
Mar 27
Waning Crescent
Mar 30
New
Apr 7
First Quarter
Apr 15
Full
Apr 22
Last Quarter

Hourly Weather History & Observations

Time (EDT) Temp. Windchill Dew Point Humidity Pressure Visibility Wind Dir Wind Speed Gust Speed Precip Events Conditions
12:54 AM 30.0 °F 21.7 °F 14.0 °F 51% 30.33 in 10.0 mi NNW 9.2 mph - N/A   Clear
1:54 AM 30.0 °F 23.2 °F 12.9 °F 49% 30.35 in 10.0 mi NNW 6.9 mph - N/A   Clear
2:54 AM 28.0 °F 21.7 °F 12.9 °F 53% 30.37 in 10.0 mi NNW 5.8 mph - N/A   Clear
3:54 AM 27.0 °F 19.5 °F 12.9 °F 56% 30.38 in 10.0 mi NNW 6.9 mph - N/A   Clear
4:54 AM 28.9 °F 20.4 °F 12.0 °F 49% 30.37 in 10.0 mi North 9.2 mph - N/A   Clear
5:54 AM 25.0 °F 20.7 °F 12.0 °F 58% 30.41 in 10.0 mi NNW 3.5 mph - N/A   Clear
6:54 AM 25.0 °F 20.7 °F 14.0 °F 63% 30.44 in 10.0 mi NNW 3.5 mph - N/A   Clear
7:54 AM 25.0 °F - 15.1 °F 66% 30.46 in 10.0 mi Calm Calm - N/A   Clear
8:54 AM 32.0 °F 28.7 °F 10.9 °F 42% 30.48 in 10.0 mi NNE 3.5 mph - N/A   Overcast
9:54 AM 34.0 °F 29.8 °F 10.9 °F 38% 30.48 in 10.0 mi ENE 4.6 mph - N/A   Overcast
10:54 AM 37.0 °F - 12.0 °F 36% 30.49 in 10.0 mi Calm Calm - N/A   Overcast
11:54 AM 37.0 °F 34.5 °F 14.0 °F 39% 30.50 in 10.0 mi Variable 3.5 mph - 0.00 in   Overcast
12:54 PM 37.9 °F 31.5 °F 17.1 °F 43% 30.47 in 10.0 mi South 9.2 mph - N/A   Overcast
1:54 PM 37.9 °F 31.5 °F 18.0 °F 45% 30.45 in 10.0 mi South 9.2 mph - N/A   Mostly Cloudy
2:54 PM 39.0 °F 31.8 °F 21.0 °F 49% 30.43 in 10.0 mi SSW 11.5 mph - N/A   Overcast
3:54 PM 39.9 °F 32.5 °F 21.9 °F 49% 30.42 in 10.0 mi SW 12.7 mph - N/A   Clear
4:54 PM 39.9 °F 31.8 °F 21.9 °F 49% 30.40 in 10.0 mi SSW 15.0 mph - N/A   Clear
5:54 PM 39.9 °F 31.8 °F 24.1 °F 53% 30.39 in 10.0 mi South 15.0 mph - N/A   Clear
6:54 PM 39.0 °F 32.3 °F 26.1 °F 60% 30.38 in 10.0 mi South 10.4 mph - N/A   Clear
7:54 PM 39.0 °F 32.3 °F 30.0 °F 70% 30.37 in 10.0 mi South 10.4 mph - N/A   Clear
8:54 PM 39.9 °F 33.9 °F 32.0 °F 73% 30.36 in 10.0 mi South 9.2 mph - N/A   Clear
9:54 PM 41.0 °F 33.1 °F 32.0 °F 70% 30.34 in 10.0 mi SSW 15.0 mph - N/A   Clear
10:54 PM 41.0 °F 34.3 °F 34.0 °F 76% 30.33 in 10.0 mi SSW 11.5 mph - N/A   Clear
11:54 PM 41.0 °F 34.3 °F 33.1 °F 73% 30.32 in 10.0 mi SW 11.5 mph - N/A   Clear